Dewpoint
50 50 50 49 49 47 41 34 26 34 35 30 29 22 20 21 19 20 20 21 25 24 25 22 25 24 28 29 30 28 32 29 23 23 25 29 26 23 26 20 18 21 20 19
50 50 50 49 49 46 40 31 31 35 35 26 24 19 19 20 19 19 19 19 22 24 21 22 26 28 29 30 32 29 30 28 22 22 24 25 23 22 23 22 21 18 18 17
51 51 50 49 49 47 38 31 23 27 27 28 23 16 16 16 21 20 19 19 19 19 20 22 22 25 27 26 30 33 33 29 25 21 23 25 23 22 21 21 20 20 19 18
51 51 51 50 48 47 37 28 22 20 18 20 19 23 19 18 17 20 20 18 19 22 21 24 22 24 24 27 28 31 31 27 29 30 31 28 24 23 21 20 20 20 20 19
52 52 51 50 48 44 30 25 24 22 15 18 21 18 12 17 22 17 19 19 26 25 23 26 24 24 24 25 25 28 27 24 28 27 28 29 28 27 24 22 21 20 19 19
52 52 51 51 48 36 28 27 26 29 21 14 14 16 17 18 21 20 22 22 25 25 27 28 26 24 22 22 24 26 25 28 25 20 28 26 24 27 27 26 24 22 20 23
53 52 52 51 50 41 29 31 30 27 18 21 19 24 23 21 21 16 19 26 26 26 23 24 25 25 22 23 22 23 26 27 28 25 24 19 23 27 28 27 26 24 23 23
53 53 52 52 51 47 35 33 28 29 18 23 24 26 24 20 19 21 18 21 25 28 28 25 23 25 24 24 24 24 23 26 25 23 24 22 25 24 26 26 25 25 25 26
53 53 52 52 52 50 37 34 33 31 23 21 25 24 21 20 16 16 20 19 19 22 26 21 14 17 22 20 21 26 25 27 23 20 21 13 22 26 26 26 24 22 21 22
47 48 49 52 52 52 42 38 36 34 28 26 25 23 24 22 17 14 16 18 18 21 17 18 14 12 19 15 15 18 20 20 18 20 20 17 23 26 27 21 20 22 21 22
42 43 44 47 47 51 47 42 36 35 31 30 29 27 24 24 23 20 19 17 13 15 14 16 15 16 17 13 11 15 16 16 15 18 13 12 24 26 22 24 22 22 22 22
40 41 41 42 43 46 46 43 38 39 33 33 30 30 28 30 30 26 19 19 18 21 16 17 21 19 14 14 11 15 13 17 15 18 17 20 24 23 25 23 23 21 21 21
39 39 39 39 39 41 41 42 37 35 31 31 30 27 28 27 28 29 26 20 25 23 27 24 20 18 20 13 13 14 17 16 17 16 20 21 22 24 25 26 25 24 22 22
41 41 40 40 40 41 41 39 37 36 32 28 30 27 25 25 24 26 27 26 26 25 28 26 22 16 21 17 17 15 18 19 18 15 19 18 19 20 19 20 22 23 23 22
42 41 41 40 41 41 39 38 38 39 35 29 27 27 21 24 22 23 25 25 27 26 24 22 19 20 21 13 12 11 18 19 16 18 19 22 21 17 16 17 17 18 21 20
43 43 42 41 41 41 36 32 36 39 38 30 25 23 21 25 23 23 25 27 27 27 23 20 20 18 24 20 12 18 23 22 25 21 19 20 16 14 13 13 15 18 18 21
44 43 42 41 41 39 35 28 36 39 38 31 22 20 21 25 26 26 26 28 27 27 26 23 20 18 25 16 8 19 19 19 20 12 16 18 14 17 8 11 9 11 8 10
42 43 41 40 38 36 32 33 40 39 34 31 24 13 17 24 21 20 26 23 25 25 22 20 18 19 20 11 13 12 9 8 11 14 10 13 11 10 4 2 4 6 6 4
43 40 38 33 32 29 33 40 39 36 30 19 19 11 11 21 20 21 22 23 17 24 20 19 19 13 10 15 9 6 7 8 8 2 2 3 8 11 8 3 3 7 5 1
41 33 25 15 31 38 37 31 30 31 30 29 18 16 12 17 14 16 18 20 18 14 17 22 17 12 14 7 -2 -4 -1 -0 0 8 9 5 5 5 5 4 5 5 5 3
35 26 25 29 36 28 20 19 18 20 17 23 18 17 13 19 16 16 21 16 18 10 13 14 10 8 4 6 4 -1 -3 -7 -6 -6 -4 -5 -2 1 3 6 4 4 5 7
33 30 33 28 17 13 14 12 18 16 16 19 16 18 20 18 22 19 19 15 16 10 14 6 0 1 4 1 1 1 -1 -4 -4 -7 -7 -5 -3 -5 -2 -1 2 3 6 8
33 24 13 13 12 9 9 6 8 11 16 14 18 17 19 19 22 19 18 13 12 16 7 2 2 5 4 0 -4 -2 -2 -2 -2 -1 -2 -3 -3 -0 -2 3 5 4 7 5
27 17 12 12 10 10 11 13 12 15 17 17 19 18 19 18 17 17 13 13 13 3 -5 -2 1 3 3 3 1 -2 -1 0 1 0 0 -1 -2 -3 -0 -1 0 4 7 8
24 17 11 10 19 18 13 12 14 17 20 18 18 16 18 15 14 13 12 8 4 3 2 6 7 5 5 6 6 5 5 4 3 4 4 1 -0 -4 0 1 1 3 5 6
22 16 13 20 20 16 13 10 10 14 16 17 13 6 7 10 13 6 9 8 4 6 8 10 10 8 7 7 8 7 7 7 6 6 6 6 5 4 3 5 5 5 4 4
24 17 23 21 19 17 14 9 9 10 14 9 2 6 7 9 4 5 9 6 5 6 7 8 8 6 6 7 8 8 9 7 7 6 6 6 7 7 6 4 5 6 5 5
Lifted_Index
12 12 12 12 12 13 13 11 11 13 13 10 8 9 9 9 8 7 6 6 6 6 5 5 5 5 4 4 4 4 4 4 4 4 4 4 4 4 4 3 3 2 2 1
12 11 11 12 12 13 13 11 11 12 13 10 9 9 9 9 9 8 7 7 7 7 6 6 5 5 5 5 4 4 4 4 4 3 4 4 4 4 4 4 3 3 2 2
11 11 11 12 12 13 13 11 10 11 11 10 9 9 9 9 9 9 8 8 8 7 7 7 6 6 6 5 5 5 4 4 3 3 3 4 4 4 4 4 3 3 3 3
10 10 11 11 12 13 14 12 11 10 10 9 9 9 9 9 9 9 9 8 8 7 7 7 7 7 7 6 6 5 5 4 4 3 3 3 3 3 3 3 3 3 3 3
10 10 10 11 12 13 13 12 11 10 9 8 8 8 9 9 9 9 9 9 8 8 7 7 8 9 9 8 7 6 5 5 4 4 3 3 3 3 3 3 3 3 3 3
9 9 10 10 11 12 12 12 11 10 9 8 8 8 9 9 9 9 9 9 9 8 8 9 10 11 11 10 9 8 7 6 5 4 3 3 3 4 3 3 2 3 3 3
8 8 9 9 10 10 11 11 11 9 8 7 8 9 10 10 10 10 10 10 10 10 10 10 10 10 10 10 10 9 8 7 6 5 4 3 4 4 3 3 2 2 3 3
8 8 8 8 9 9 10 10 10 9 8 8 8 9 10 10 10 10 11 11 12 11 11 9 7 7 7 8 8 9 9 8 7 5 3 4 4 4 4 3 3 3 3 3
8 8 8 8 8 8 9 9 10 9 9 8 9 9 9 9 10 10 11 12 13 12 11 8 5 5 5 6 6 7 8 7 6 5 4 4 5 5 5 4 4 4 4 4
9 9 9 8 8 8 8 9 9 9 9 8 8 8 8 9 9 10 11 12 12 12 10 7 6 5 6 6 5 6 6 6 6 5 4 5 6 6 6 5 5 6 6 5
12 12 11 10 10 9 8 8 8 7 7 7 7 7 7 7 8 8 10 11 11 10 9 7 7 7 7 6 6 6 6 6 6 6 5 6 7 8 7 7 8 8 8 7
15 15 14 13 12 10 9 8 7 5 4 4 5 5 5 6 7 7 8 9 9 9 8 8 8 8 8 7 6 7 7 7 8 7 7 7 8 9 9 9 9 10 9 9
16 16 15 14 13 11 9 7 6 4 3 3 3 3 4 5 6 7 7 7 8 9 8 8 8 8 8 7 7 7 8 8 8 8 8 8 9 9 9 9 10 10 10 10
15 15 14 12 11 9 8 7 6 5 3 2 2 2 3 5 6 6 6 7 7 8 7 7 7 7 7 7 7 7 8 8 8 7 7 8 9 9 9 9 9 10 10 10
13 12 11 9 8 8 8 8 7 6 4 3 2 2 3 4 5 6 6 6 6 6 6 5 5 6 6 6 6 6 6 7 7 7 7 8 9 9 10 9 9 10 10 10
11 10 8 8 7 7 8 8 8 7 5 4 3 3 3 4 5 5 5 5 5 5 4 4 5 6 6 5 4 4 5 6 7 7 8 8 9 9 10 10 10 10 10 10
8 8 7 7 8 8 9 9 8 7 6 5 4 3 4 4 5 5 5 6 5 5 5 5 5 6 5 4 3 3 4 6 6 7 8 8 8 9 10 10 10 10 10 10
7 7 7 8 9 9 9 9 8 8 7 6 5 4 4 5 4 4 5 6 5 5 5 5 4 4 4 3 2 3 4 5 6 6 7 8 8 9 9 10 10 10 10 10
7 7 8 8 9 10 10 9 8 8 7 6 6 5 4 4 3 3 5 5 4 4 4 4 3 3 3 2 2 3 4 5 5 6 7 7 8 8 9 9 9 9 9 10
7 7 8 8 9 9 9 9 8 7 7 6 6 5 5 4 3 2 3 3 3 3 3 3 3 2 2 3 3 4 4 5 6 6 7 7 8 8 8 9 9 9 10 10
8 8 8 8 9 9 8 7 7 7 6 6 6 6 5 5 3 2 2 3 2 2 2 3 2 2 3 4 4 5 6 6 7 7 7 8 8 8 8 9 9 9 10 10
8 8 8 8 8 7 6 6 6 6 6 6 6 6 6 5 4 3 3 2 2 2 2 2 2 2 4 5 6 7 7 8 8 8 8 8 8 9 9 9 9 9 9 9
7 7 7 7 6 5 5 5 5 5 5 5 5 5 6 6 5 4 3 2 2 3 2 2 2 3 5 6 7 8 8 8 8 8 8 8 9 10 10 10 9 9 9 9
7 6 6 5 4 4 4 4 5 5 5 5 5 5 5 5 4 4 3 2 2 2 2 2 3 4 6 7 8 8 8 8 9 9 9 9 9 10 11 10 10 10 9 9
6 5 5 4 3 4 4 5 5 5 5 5 5 4 4 4 3 3 2 2 2 1 1 2 4 5 6 8 9 9 9 9 9 9 9 10 10 10 10 11 10 10 10 10
5 4 4 3 3 3 4 4 4 5 5 5 4 4 3 3 3 2 2 2 1 1 2 4 5 6 7 8 9 10 10 10 10 10 10 10 10 10 10 10 10 10 10 10
4 4 3 3 2 3 3 4 4 4 4 4 4 4 3 3 3 2 2 2 2 2 3 5 6 7 8 9 10 11 11 10 10 10 10 10 10 10 10 10 10 10 11 11